contact:dominique.lefevre@mio.osupytheas.fr, maurice.libes@osupytheas.fr, didier.mallarino@osupytheas.fr
Project:EMSO http://www.emso-fr.org/EMSO-France
Depth: 2436.0 m
Title:EMSO Ligure Ouest : Data MII capteur MICROCAT
DateTime_Computer,Latitude,Longitude,Temperature,Conductivity,Pressure,DateTime_Instrument
DateTime_Computer,Latitude,Longitude,degC,S m-1,dbar,DateTime_Instrument
2020-01-05T00:02:18Z,42.805,6.029,13.2974,4.60001,2469.937,2020-1-05T02:02:49Z
2020-01-05T00:05:21Z,42.805,6.029,13.2977,4.59991,2469.993,2020-1-05T02:05:52Z
2020-01-05T00:08:24Z,42.805,6.029,13.2966,4.59995,2469.96,2020-1-05T02:08:56Z
2020-01-05T00:11:27Z,42.805,6.029,13.2979,4.59998,2469.97,2020-1-05T02:11:59Z
2020-01-05T00:14:30Z,42.805,6.029,13.2974,4.59994,2469.984,2020-1-05T02:15:02Z
2020-01-05T00:17:34Z,42.805,6.029,13.2968,4.59986,2469.96,2020-1-05T02:18:05Z
2020-01-05T00:20:37Z,42.805,6.029,13.2971,4.60001,2469.97,2020-1-05T02:21:09Z
2020-01-05T00:23:40Z,42.805,6.029,13.2979,4.60015,2469.97,2020-1-05T02:24:12Z
2020-01-05T00:26:43Z,42.805,6.029,13.2974,4.59991,2469.947,2020-1-05T02:27:15Z
2020-01-05T00:29:46Z,42.805,6.029,13.2967,4.59996,2469.97,2020-1-05T02:30:18Z
2020-01-05T00:32:50Z,42.805,6.029,13.2971,4.60002,2469.97,2020-1-05T02:33:21Z
2020-01-05T00:35:53Z,42.805,6.029,13.2980,4.60005,2469.97,2020-1-05T02:36:25Z
2020-01-05T00:38:56Z,42.805,6.029,13.2974,4.60004,2469.947,2020-1-05T02:39:28Z
2020-01-05T00:41:59Z,42.805,6.029,13.2970,4.59994,2469.97,2020-1-05T02:42:31Z
2020-01-05T00:45:03Z,42.805,6.029,13.2982,4.60000,2469.97,2020-1-05T02:45:34Z
2020-01-05T00:48:06Z,42.805,6.029,13.2974,4.59997,2469.947,2020-1-05T02:48:37Z
2020-01-05T00:51:09Z,42.805,6.029,13.2982,4.59989,2469.97,2020-1-05T02:51:41Z
2020-01-05T00:54:12Z,42.805,6.029,13.2974,4.59996,2469.97,2020-1-05T02:54:44Z
2020-01-05T00:57:15Z,42.805,6.029,13.2975,4.59990,2469.984,2020-1-05T02:57:47Z
2020-01-05T01:00:19Z,42.805,6.029,13.2973,4.59995,2469.947,2020-1-05T03:00:50Z
2020-01-05T01:03:22Z,42.805,6.029,13.2968,4.59983,2469.97,2020-1-05T03:03:54Z
2020-01-05T01:06:25Z,42.805,6.029,13.2967,4.60000,2469.97,2020-1-05T03:06:57Z
2020-01-05T01:09:28Z,42.805,6.029,13.2971,4.60005,2469.984,2020-1-05T03:10:00Z
2020-01-05T01:12:32Z,42.805,6.029,13.2977,4.60009,2469.984,2020-1-05T03:13:03Z
2020-01-05T01:15:35Z,42.805,6.029,13.2973,4.60018,2469.984,2020-1-05T03:16:07Z
2020-01-05T01:18:38Z,42.805,6.029,13.2978,4.60004,2469.97,2020-1-05T03:19:10Z
2020-01-05T01:21:41Z,42.805,6.029,13.2979,4.59999,2469.984,2020-1-05T03:22:13Z
2020-01-05T01:24:44Z,42.805,6.029,13.2976,4.60022,2469.984,2020-1-05T03:25:16Z
2020-01-05T01:27:48Z,42.805,6.029,13.2977,4.60006,2469.947,2020-1-05T03:28:20Z
2020-01-05T01:30:51Z,42.805,6.029,13.2971,4.59991,2469.96,2020-1-05T03:31:23Z
2020-01-05T01:33:54Z,42.805,6.029,13.2982,4.60000,2469.984,2020-1-05T03:34:26Z
2020-01-05T01:36:58Z,42.805,6.029,13.2979,4.59998,2469.993,2020-1-05T03:37:29Z
2020-01-05T01:40:01Z,42.805,6.029,13.2970,4.59995,2469.947,2020-1-05T03:40:33Z
2020-01-05T01:43:04Z,42.805,6.029,13.2974,4.60009,2469.993,2020-1-05T03:43:36Z
2020-01-05T01:46:07Z,42.805,6.029,13.2973,4.60001,2469.984,2020-1-05T03:46:39Z
2020-01-05T01:49:11Z,42.805,6.029,13.2974,4.59997,2469.993,2020-1-05T03:49:42Z
2020-01-05T01:52:14Z,42.805,6.029,13.2977,4.60011,2469.97,2020-1-05T03:52:46Z
2020-01-05T01:55:17Z,42.805,6.029,13.2974,4.60011,2470.007,2020-1-05T03:55:49Z
2020-01-05T01:58:20Z,42.805,6.029,13.2967,4.60011,2469.97,2020-1-05T03:58:52Z
2020-01-05T02:01:24Z,42.805,6.029,13.2970,4.59983,2469.993,2020-1-05T04:01:55Z
2020-01-05T02:04:27Z,42.805,6.029,13.2969,4.60000,2469.993,2020-1-05T04:04:59Z
2020-01-05T02:07:30Z,42.805,6.029,13.2968,4.59984,2469.97,2020-1-05T04:08:02Z
2020-01-05T02:10:33Z,42.805,6.029,13.2968,4.59982,2469.993,2020-1-05T04:11:05Z
2020-01-05T02:13:36Z,42.805,6.029,13.2974,4.59987,2469.984,2020-1-05T04:14:08Z
2020-01-05T02:16:40Z,42.805,6.029,13.2971,4.59998,2469.993,2020-1-05T04:17:11Z
2020-01-05T02:19:43Z,42.805,6.029,13.2982,4.60003,2470.007,2020-1-05T04:20:15Z
2020-01-05T02:22:46Z,42.805,6.029,13.2971,4.60003,2470.007,2020-1-05T04:23:18Z
2020-01-05T02:25:49Z,42.805,6.029,13.2975,4.59995,2469.993,2020-1-05T04:26:21Z
2020-01-05T02:28:53Z,42.805,6.029,13.2972,4.59998,2469.993,2020-1-05T04:29:25Z
2020-01-05T02:31:56Z,42.805,6.029,13.2974,4.60014,2469.97,2020-1-05T04:32:28Z
2020-01-05T02:34:59Z,42.805,6.029,13.2976,4.60008,2469.947,2020-1-05T04:35:31Z
2020-01-05T02:38:03Z,42.805,6.029,13.2970,4.60006,2469.984,2020-1-05T04:38:34Z
2020-01-05T02:41:06Z,42.805,6.029,13.2968,4.59996,2469.956,2020-1-05T04:41:37Z
2020-01-05T02:44:09Z,42.805,6.029,13.2968,4.59999,2470.007,2020-1-05T04:44:41Z
2020-01-05T02:47:12Z,42.805,6.029,13.2968,4.59999,2469.97,2020-1-05T04:47:44Z
2020-01-05T02:50:16Z,42.805,6.029,13.2986,4.60013,2469.97,2020-1-05T04:50:47Z
2020-01-05T02:53:19Z,42.805,6.029,13.2976,4.60002,2470.017,2020-1-05T04:53:50Z
2020-01-05T02:56:22Z,42.805,6.029,13.2972,4.59998,2470.03,2020-1-05T04:56:54Z
2020-01-05T02:59:25Z,42.805,6.029,13.2982,4.60028,2470.03,2020-1-05T04:59:57Z
2020-01-05T03:02:28Z,42.805,6.029,13.2970,4.59986,2469.97,2020-1-05T05:03:00Z
2020-01-05T03:05:32Z,42.805,6.029,13.2974,4.60003,2470.017,2020-1-05T05:06:03Z
2020-01-05T03:08:35Z,42.805,6.029,13.2978,4.59983,2469.96,2020-1-05T05:09:06Z
2020-01-05T03:11:38Z,42.805,6.029,13.2976,4.59991,2469.97,2020-1-05T05:12:10Z
2020-01-05T03:14:41Z,42.805,6.029,13.2979,4.60015,2470.03,2020-1-05T05:15:13Z
2020-01-05T03:17:45Z,42.805,6.029,13.2971,4.60009,2470.007,2020-1-05T05:18:16Z
2020-01-05T03:20:48Z,42.805,6.029,13.2968,4.59994,2469.993,2020-1-05T05:21:19Z
2020-01-05T03:23:51Z,42.805,6.029,13.2970,4.59981,2469.993,2020-1-05T05:24:23Z
2020-01-05T03:26:54Z,42.805,6.029,13.2971,4.59984,2470.007,2020-1-05T05:27:26Z
2020-01-05T03:29:57Z,42.805,6.029,13.2976,4.59996,2470.053,2020-1-05T05:30:29Z
2020-01-05T03:33:01Z,42.805,6.029,13.2982,4.60015,2470.007,2020-1-05T05:33:32Z
2020-01-05T03:36:04Z,42.805,6.029,13.2980,4.60009,2469.993,2020-1-05T05:36:36Z
2020-01-05T03:39:07Z,42.805,6.029,13.2971,4.60006,2470.017,2020-1-05T05:39:39Z
2020-01-05T03:42:10Z,42.805,6.029,13.2975,4.60021,2470.007,2020-1-05T05:42:42Z
2020-01-05T03:45:14Z,42.805,6.029,13.2971,4.60003,2470.007,2020-1-05T05:45:45Z
2020-01-05T03:48:17Z,42.805,6.029,13.2976,4.60005,2469.97,2020-1-05T05:48:48Z
2020-01-05T03:51:20Z,42.805,6.029,13.2979,4.60003,2469.979,2020-1-05T05:51:52Z
2020-01-05T03:54:23Z,42.805,6.029,13.2982,4.59991,2469.97,2020-1-05T05:54:55Z
2020-01-05T03:57:27Z,42.805,6.029,13.2979,4.59991,2469.993,2020-1-05T05:57:58Z
2020-01-05T04:00:30Z,42.805,6.029,13.2977,4.59996,2469.993,2020-1-05T06:01:01Z
2020-01-05T04:03:33Z,42.805,6.029,13.2974,4.60001,2470.017,2020-1-05T06:04:05Z
2020-01-05T04:06:36Z,42.805,6.029,13.2976,4.60000,2470.007,2020-1-05T06:07:08Z
2020-01-05T04:09:39Z,42.805,6.029,13.2978,4.59994,2469.97,2020-1-05T06:10:11Z
2020-01-05T04:12:43Z,42.805,6.029,13.2974,4.59991,2469.97,2020-1-05T06:13:14Z
2020-01-05T04:15:46Z,42.805,6.029,13.2969,4.59984,2470.017,2020-1-05T06:16:18Z
2020-01-05T04:18:49Z,42.805,6.029,13.2971,4.59992,2470.007,2020-1-05T06:19:21Z
2020-01-05T04:21:52Z,42.805,6.029,13.2968,4.60002,2470.017,2020-1-05T06:22:24Z
2020-01-05T04:24:56Z,42.805,6.029,13.2979,4.59991,2469.984,2020-1-05T06:25:27Z
2020-01-05T04:27:59Z,42.805,6.029,13.2976,4.59996,2469.984,2020-1-05T06:28:31Z
2020-01-05T04:31:02Z,42.805,6.029,13.2972,4.59993,2470.03,2020-1-05T06:31:34Z
2020-01-05T04:34:05Z,42.805,6.029,13.2971,4.59995,2469.97,2020-1-05T06:34:37Z
2020-01-05T04:37:08Z,42.805,6.029,13.2970,4.59988,2470.017,2020-1-05T06:37:40Z
2020-01-05T04:40:12Z,42.805,6.029,13.2975,4.59989,2469.97,2020-1-05T06:40:43Z
2020-01-05T04:43:15Z,42.805,6.029,13.2971,4.59993,2469.97,2020-1-05T06:43:47Z
2020-01-05T04:46:18Z,42.805,6.029,13.2968,4.59988,2469.979,2020-1-05T06:46:50Z
2020-01-05T04:49:21Z,42.805,6.029,13.2976,4.59991,2469.947,2020-1-05T06:49:53Z
2020-01-05T04:52:25Z,42.805,6.029,13.2983,4.60008,2469.947,2020-1-05T06:52:56Z
2020-01-05T04:55:28Z,42.805,6.029,13.2979,4.59999,2469.993,2020-1-05T06:56:00Z
2020-01-05T04:58:32Z,42.805,6.029,13.2974,4.59994,2470.017,2020-1-05T06:59:03Z
2020-01-05T05:01:35Z,42.805,6.029,13.2976,4.60011,2469.993,2020-1-05T07:02:07Z
2020-01-05T05:04:38Z,42.805,6.029,13.2979,4.60004,2469.993,2020-1-05T07:05:10Z
2020-01-05T05:07:41Z,42.805,6.029,13.2970,4.59987,2469.984,2020-1-05T07:08:13Z
2020-01-05T05:10:45Z,42.805,6.029,13.2980,4.60015,2469.97,2020-1-05T07:11:16Z
2020-01-05T05:13:48Z,42.805,6.029,13.2971,4.59994,2469.993,2020-1-05T07:14:19Z
2020-01-05T05:16:51Z,42.805,6.029,13.2972,4.60002,2469.97,2020-1-05T07:17:23Z
2020-01-05T05:19:54Z,42.805,6.029,13.2978,4.60002,2469.984,2020-1-05T07:20:26Z
2020-01-05T05:22:57Z,42.805,6.029,13.2971,4.59984,2469.97,2020-1-05T07:23:29Z
2020-01-05T05:26:01Z,42.805,6.029,13.2971,4.59996,2469.984,2020-1-05T07:26:32Z
2020-01-05T05:29:04Z,42.805,6.029,13.2975,4.60001,2470.007,2020-1-05T07:29:36Z
2020-01-05T05:32:07Z,42.805,6.029,13.2978,4.60004,2469.984,2020-1-05T07:32:39Z
2020-01-05T05:35:10Z,42.805,6.029,13.2974,4.59998,2469.97,2020-1-05T07:35:42Z
2020-01-05T05:38:14Z,42.805,6.029,13.2979,4.60017,2469.984,2020-1-05T07:38:45Z
2020-01-05T05:41:17Z,42.805,6.029,13.2985,4.60017,2469.97,2020-1-05T07:41:48Z
2020-01-05T05:44:20Z,42.805,6.029,13.2975,4.60007,2469.97,2020-1-05T07:44:52Z
2020-01-05T05:47:23Z,42.805,6.029,13.2979,4.60001,2469.97,2020-1-05T07:47:55Z
2020-01-05T05:50:26Z,42.805,6.029,13.2974,4.60032,2469.984,2020-1-05T07:50:58Z
2020-01-05T05:53:30Z,42.805,6.029,13.2971,4.60014,2470.03,2020-1-05T07:54:01Z
2020-01-05T05:56:33Z,42.805,6.029,13.2974,4.59997,2470.007,2020-1-05T07:57:05Z
2020-01-05T05:59:36Z,42.805,6.029,13.2982,4.60011,2469.984,2020-1-05T08:00:08Z
2020-01-05T06:02:39Z,42.805,6.029,13.2970,4.59988,2469.993,2020-1-05T08:03:11Z
2020-01-05T06:05:42Z,42.805,6.029,13.2974,4.60021,2469.947,2020-1-05T08:06:14Z
2020-01-05T06:08:46Z,42.805,6.029,13.2979,4.60019,2469.97,2020-1-05T08:09:17Z
2020-01-05T06:11:49Z,42.805,6.029,13.2978,4.60029,2469.97,2020-1-05T08:12:21Z
2020-01-05T06:14:52Z,42.805,6.029,13.2995,4.60049,2469.984,2020-1-05T08:15:24Z
2020-01-05T06:17:55Z,42.805,6.029,13.2974,4.60010,2469.984,2020-1-05T08:18:27Z
2020-01-05T06:20:59Z,42.805,6.029,13.2981,4.60032,2469.984,2020-1-05T08:21:30Z
2020-01-05T06:24:02Z,42.805,6.029,13.2983,4.60002,2469.984,2020-1-05T08:24:34Z
2020-01-05T06:27:05Z,42.805,6.029,13.2974,4.60024,2469.97,2020-1-05T08:27:37Z
2020-01-05T06:30:08Z,42.805,6.029,13.2983,4.60019,2469.97,2020-1-05T08:30:40Z
2020-01-05T06:33:12Z,42.805,6.029,13.2976,4.60015,2469.984,2020-1-05T08:33:43Z
2020-01-05T06:36:15Z,42.805,6.029,13.2987,4.60029,2469.97,2020-1-05T08:36:46Z
2020-01-05T06:39:18Z,42.805,6.029,13.2979,4.60025,2469.993,2020-1-05T08:39:50Z
2020-01-05T06:42:21Z,42.805,6.029,13.2989,4.60025,2469.97,2020-1-05T08:42:53Z
2020-01-05T06:45:24Z,42.805,6.029,13.2986,4.60034,2469.97,2020-1-05T08:45:56Z
2020-01-05T06:48:28Z,42.805,6.029,13.2986,4.60059,2469.984,2020-1-05T08:48:59Z
2020-01-05T06:51:31Z,42.805,6.029,13.2989,4.60039,2469.96,2020-1-05T08:52:03Z
2020-01-05T06:54:34Z,42.805,6.029,13.2977,4.60029,2469.96,2020-1-05T08:55:06Z
2020-01-05T06:57:37Z,42.805,6.029,13.2979,4.60017,2469.993,2020-1-05T08:58:09Z
2020-01-05T07:00:41Z,42.805,6.029,13.2981,4.60033,2469.984,2020-1-05T09:01:12Z
2020-01-05T07:03:44Z,42.805,6.029,13.2979,4.60011,2469.993,2020-1-05T09:04:16Z
2020-01-05T07:06:47Z,42.805,6.029,13.2977,4.60039,2469.984,2020-1-05T09:07:19Z
2020-01-05T07:09:50Z,42.805,6.029,13.2982,4.60040,2469.937,2020-1-05T09:10:22Z
2020-01-05T07:12:54Z,42.805,6.029,13.2976,4.60044,2469.984,2020-1-05T09:13:25Z
2020-01-05T07:15:57Z,42.805,6.029,13.2991,4.60031,2469.97,2020-1-05T09:16:28Z
2020-01-05T07:19:00Z,42.805,6.029,13.2990,4.60039,2469.984,2020-1-05T09:19:32Z
2020-01-05T07:22:03Z,42.805,6.029,13.2981,4.60032,2469.984,2020-1-05T09:22:35Z
2020-01-05T07:25:06Z,42.805,6.029,13.2980,4.60037,2469.947,2020-1-05T09:25:38Z
2020-01-05T07:28:10Z,42.805,6.029,13.2976,4.60062,2469.96,2020-1-05T09:28:41Z
2020-01-05T07:31:13Z,42.805,6.029,13.2979,4.60000,2469.947,2020-1-05T09:31:45Z
2020-01-05T07:34:16Z,42.805,6.029,13.2983,4.60039,2469.947,2020-1-05T09:34:48Z
2020-01-05T07:37:19Z,42.805,6.029,13.2986,4.60053,2469.947,2020-1-05T09:37:51Z
2020-01-05T07:40:23Z,42.805,6.029,13.2979,4.60057,2469.97,2020-1-05T09:40:54Z
2020-01-05T07:43:26Z,42.805,6.029,13.2986,4.60060,2469.97,2020-1-05T09:43:57Z
2020-01-05T07:46:29Z,42.805,6.029,13.2985,4.59999,2469.96,2020-1-05T09:47:01Z
2020-01-05T07:49:32Z,42.805,6.029,13.2978,4.60021,2469.993,2020-1-05T09:50:04Z
2020-01-05T07:52:35Z,42.805,6.029,13.3006,4.60017,2469.96,2020-1-05T09:53:07Z
2020-01-05T07:55:39Z,42.805,6.029,13.2980,4.60041,2469.984,2020-1-05T09:56:10Z
2020-01-05T07:58:42Z,42.805,6.029,13.2976,4.60040,2469.97,2020-1-05T09:59:14Z
2020-01-05T08:01:45Z,42.805,6.029,13.2980,4.60037,2469.993,2020-1-05T10:02:17Z
2020-01-05T08:04:48Z,42.805,6.029,13.2986,4.60054,2469.984,2020-1-05T10:05:20Z
2020-01-05T08:07:52Z,42.805,6.029,13.2989,4.60039,2469.984,2020-1-05T10:08:23Z
2020-01-05T08:10:55Z,42.805,6.029,13.2976,4.60029,2469.984,2020-1-05T10:11:26Z
2020-01-05T08:13:58Z,42.805,6.029,13.2986,4.60044,2469.947,2020-1-05T10:14:30Z
2020-01-05T08:17:01Z,42.805,6.029,13.2983,4.60047,2470.007,2020-1-05T10:17:33Z
2020-01-05T08:20:04Z,42.805,6.029,13.2989,4.60041,2469.96,2020-1-05T10:20:36Z
2020-01-05T08:23:08Z,42.805,6.029,13.2998,4.60069,2469.97,2020-1-05T10:23:39Z
2020-01-05T08:26:11Z,42.805,6.029,13.2981,4.60073,2469.96,2020-1-05T10:26:43Z
2020-01-05T08:29:14Z,42.805,6.029,13.3000,4.60054,2469.947,2020-1-05T10:29:46Z
2020-01-05T08:32:18Z,42.805,6.029,13.2986,4.60014,2469.96,2020-1-05T10:32:49Z
2020-01-05T08:35:21Z,42.805,6.029,13.2983,4.60022,2469.937,2020-1-05T10:35:53Z
2020-01-05T08:38:24Z,42.805,6.029,13.2969,4.60001,2469.97,2020-1-05T10:38:56Z
2020-01-05T08:41:27Z,42.805,6.029,13.2979,4.60001,2469.937,2020-1-05T10:41:59Z
2020-01-05T08:44:31Z,42.805,6.029,13.2979,4.60013,2469.947,2020-1-05T10:45:02Z
2020-01-05T08:47:34Z,42.805,6.029,13.2976,4.60059,2469.97,2020-1-05T10:48:05Z
2020-01-05T08:50:37Z,42.805,6.029,13.2979,4.60067,2469.947,2020-1-05T10:51:09Z
2020-01-05T08:53:40Z,42.805,6.029,13.2979,4.60038,2469.984,2020-1-05T10:54:12Z
2020-01-05T08:56:44Z,42.805,6.029,13.2981,4.60041,2469.97,2020-1-05T10:57:15Z
2020-01-05T08:59:47Z,42.805,6.029,13.2987,4.60026,2469.947,2020-1-05T11:00:18Z
2020-01-05T09:02:50Z,42.805,6.029,13.2979,4.60054,2469.923,2020-1-05T11:03:22Z
2020-01-05T09:05:53Z,42.805,6.029,13.2985,4.60016,2469.96,2020-1-05T11:06:25Z
2020-01-05T09:08:56Z,42.805,6.029,13.3007,4.60049,2469.984,2020-1-05T11:09:28Z
2020-01-05T09:12:00Z,42.805,6.029,13.2987,4.60007,2469.947,2020-1-05T11:12:31Z
2020-01-05T09:15:03Z,42.805,6.029,13.2990,4.60025,2469.984,2020-1-05T11:15:35Z
2020-01-05T09:18:06Z,42.805,6.029,13.2984,4.60044,2470.007,2020-1-05T11:18:38Z
2020-01-05T09:21:09Z,42.805,6.029,13.2989,4.60040,2469.984,2020-1-05T11:21:41Z
2020-01-05T09:24:13Z,42.805,6.029,13.3001,4.60020,2469.97,2020-1-05T11:24:44Z
2020-01-05T09:27:16Z,42.805,6.029,13.2993,4.60069,2469.923,2020-1-05T11:27:47Z
2020-01-05T09:30:19Z,42.805,6.029,13.3004,4.60008,2469.97,2020-1-05T11:30:51Z
2020-01-05T09:33:22Z,42.805,6.029,13.3002,4.60036,2469.97,2020-1-05T11:33:54Z
2020-01-05T09:36:25Z,42.805,6.029,13.2995,4.60006,2469.937,2020-1-05T11:36:57Z
2020-01-05T09:39:29Z,42.805,6.029,13.2970,4.59994,2469.947,2020-1-05T11:40:00Z
2020-01-05T09:42:32Z,42.805,6.029,13.2967,4.59990,2469.97,2020-1-05T11:43:04Z
2020-01-05T09:45:35Z,42.805,6.029,13.2994,4.59985,2469.96,2020-1-05T11:46:07Z
2020-01-05T09:48:38Z,42.805,6.029,13.2979,4.60019,2469.947,2020-1-05T11:49:10Z
2020-01-05T09:51:41Z,42.805,6.029,13.3002,4.60016,2469.96,2020-1-05T11:52:13Z
2020-01-05T09:54:45Z,42.805,6.029,13.2982,4.60016,2469.97,2020-1-05T11:55:17Z
2020-01-05T09:57:48Z,42.805,6.029,13.2995,4.60000,2469.96,2020-1-05T11:58:20Z
2020-01-05T10:00:51Z,42.805,6.029,13.2964,4.59979,2469.984,2020-1-05T12:01:23Z
2020-01-05T10:03:55Z,42.805,6.029,13.2966,4.59976,2469.97,2020-1-05T12:04:26Z
2020-01-05T10:06:58Z,42.805,6.029,13.2988,4.59975,2469.993,2020-1-05T12:07:30Z
2020-01-05T10:10:01Z,42.805,6.029,13.2974,4.59968,2469.97,2020-1-05T12:10:33Z
2020-01-05T10:13:04Z,42.805,6.029,13.2958,4.59967,2469.97,2020-1-05T12:13:36Z
2020-01-05T10:16:08Z,42.805,6.029,13.2965,4.59968,2469.947,2020-1-05T12:16:39Z
2020-01-05T10:19:11Z,42.805,6.029,13.2965,4.59967,2469.947,2020-1-05T12:19:42Z
2020-01-05T10:22:14Z,42.805,6.029,13.2964,4.59964,2469.97,2020-1-05T12:22:46Z
2020-01-05T10:25:17Z,42.805,6.029,13.2962,4.59968,2469.97,2020-1-05T12:25:49Z
2020-01-05T10:28:20Z,42.805,6.029,13.2961,4.59967,2469.97,2020-1-05T12:28:52Z
2020-01-05T10:31:24Z,42.805,6.029,13.2964,4.59968,2469.993,2020-1-05T12:31:55Z
2020-01-05T10:34:27Z,42.805,6.029,13.2960,4.59963,2469.97,2020-1-05T12:34:59Z
2020-01-05T10:37:30Z,42.805,6.029,13.2962,4.59962,2469.97,2020-1-05T12:38:02Z
2020-01-05T10:40:33Z,42.805,6.029,13.2961,4.59962,2469.993,2020-1-05T12:41:05Z
2020-01-05T10:43:37Z,42.805,6.029,13.2961,4.59962,2469.97,2020-1-05T12:44:08Z
2020-01-05T10:46:40Z,42.805,6.029,13.2962,4.59962,2469.947,2020-1-05T12:47:12Z
2020-01-05T10:49:43Z,42.805,6.029,13.2962,4.59966,2470.007,2020-1-05T12:50:15Z
2020-01-05T10:52:46Z,42.805,6.029,13.2961,4.59966,2470.017,2020-1-05T12:53:18Z
2020-01-05T10:55:50Z,42.805,6.029,13.2966,4.59963,2469.984,2020-1-05T12:56:21Z
2020-01-05T10:58:53Z,42.805,6.029,13.2957,4.59962,2469.993,2020-1-05T12:59:24Z
2020-01-05T11:01:56Z,42.805,6.029,13.2963,4.59962,2469.97,2020-1-05T13:02:28Z
2020-01-05T11:04:59Z,42.805,6.029,13.2962,4.59965,2469.993,2020-1-05T13:05:31Z
2020-01-05T11:08:02Z,42.805,6.029,13.2962,4.59966,2469.993,2020-1-05T13:08:34Z
2020-01-05T11:11:06Z,42.805,6.029,13.2961,4.59964,2469.97,2020-1-05T13:11:37Z
2020-01-05T11:14:09Z,42.805,6.029,13.2962,4.59964,2470.007,2020-1-05T13:14:41Z
2020-01-05T11:17:12Z,42.805,6.029,13.2961,4.59962,2470.007,2020-1-05T13:17:44Z
2020-01-05T11:20:15Z,42.805,6.029,13.2963,4.59963,2469.993,2020-1-05T13:20:47Z
2020-01-05T11:23:19Z,42.805,6.029,13.2961,4.59963,2469.97,2020-1-05T13:23:50Z
2020-01-05T11:26:22Z,42.805,6.029,13.2961,4.59962,2470.007,2020-1-05T13:26:54Z
2020-01-05T11:29:25Z,42.805,6.029,13.2962,4.59964,2469.984,2020-1-05T13:29:57Z
2020-01-05T11:32:28Z,42.805,6.029,13.2961,4.59961,2469.993,2020-1-05T13:33:00Z
2020-01-05T11:35:31Z,42.805,6.029,13.2959,4.59960,2470.03,2020-1-05T13:36:03Z
2020-01-05T11:38:35Z,42.805,6.029,13.2959,4.59961,2469.947,2020-1-05T13:39:06Z
2020-01-05T11:41:38Z,42.805,6.029,13.2962,4.59961,2469.993,2020-1-05T13:42:10Z
2020-01-05T11:44:41Z,42.805,6.029,13.2965,4.59963,2470.007,2020-1-05T13:45:13Z
2020-01-05T11:47:45Z,42.805,6.029,13.2962,4.59965,2469.993,2020-1-05T13:48:16Z
2020-01-05T11:50:48Z,42.805,6.029,13.2962,4.59962,2470.053,2020-1-05T13:51:19Z
2020-01-05T11:53:51Z,42.805,6.029,13.2961,4.59961,2469.993,2020-1-05T13:54:23Z
2020-01-05T11:56:54Z,42.805,6.029,13.2961,4.59964,2470.007,2020-1-05T13:57:26Z
2020-01-05T11:59:57Z,42.805,6.029,13.2963,4.59961,2469.993,2020-1-05T14:00:29Z
2020-01-05T12:03:00Z,42.805,6.029,13.2959,4.59961,2469.993,2020-1-05T14:03:32Z
2020-01-05T12:06:04Z,42.805,6.029,13.2959,4.59961,2469.979,2020-1-05T14:06:35Z
2020-01-05T12:09:07Z,42.805,6.029,13.2964,4.59961,2470.007,2020-1-05T14:09:39Z
2020-01-05T12:12:10Z,42.805,6.029,13.2961,4.59962,2470.017,2020-1-05T14:12:42Z
2020-01-05T12:15:13Z,42.805,6.029,13.2962,4.59962,2470.007,2020-1-05T14:15:45Z
2020-01-05T12:18:16Z,42.805,6.029,13.2965,4.59963,2470.017,2020-1-05T14:18:48Z
2020-01-05T12:21:20Z,42.805,6.029,13.2961,4.59966,2470.017,2020-1-05T14:21:51Z
2020-01-05T12:24:23Z,42.805,6.029,13.2961,4.59966,2469.979,2020-1-05T14:24:55Z
2020-01-05T12:27:26Z,42.805,6.029,13.2963,4.59962,2470.017,2020-1-05T14:27:58Z
2020-01-05T12:30:29Z,42.805,6.029,13.2967,4.59963,2470.017,2020-1-05T14:31:01Z
2020-01-05T12:33:33Z,42.805,6.029,13.2966,4.59963,2470.017,2020-1-05T14:34:04Z
2020-01-05T12:36:36Z,42.805,6.029,13.2967,4.59963,2470.03,2020-1-05T14:37:08Z
2020-01-05T12:39:39Z,42.805,6.029,13.2961,4.59964,2470.03,2020-1-05T14:40:11Z
2020-01-05T12:42:42Z,42.805,6.029,13.2965,4.59963,2470.017,2020-1-05T14:43:14Z
2020-01-05T12:45:46Z,42.805,6.029,13.2964,4.59961,2470.04,2020-1-05T14:46:17Z
2020-01-05T12:48:49Z,42.805,6.029,13.2961,4.59964,2470.017,2020-1-05T14:49:21Z
2020-01-05T12:51:52Z,42.805,6.029,13.2961,4.59961,2469.993,2020-1-05T14:52:24Z
2020-01-05T12:54:55Z,42.805,6.029,13.2961,4.59961,2470.017,2020-1-05T14:55:27Z
2020-01-05T12:57:59Z,42.805,6.029,13.2962,4.59963,2470.017,2020-1-05T14:58:30Z
2020-01-05T13:01:02Z,42.805,6.029,13.2963,4.59961,2470.03,2020-1-05T15:01:34Z
2020-01-05T13:04:05Z,42.805,6.029,13.2964,4.59963,2469.984,2020-1-05T15:04:37Z
2020-01-05T13:07:08Z,42.805,6.029,13.2963,4.59963,2470.04,2020-1-05T15:07:40Z
2020-01-05T13:10:11Z,42.805,6.029,13.2964,4.59965,2470.053,2020-1-05T15:10:43Z
2020-01-05T13:13:15Z,42.805,6.029,13.2961,4.59961,2470.017,2020-1-05T15:13:46Z
2020-01-05T13:16:18Z,42.805,6.029,13.2961,4.59962,2470.03,2020-1-05T15:16:50Z
2020-01-05T13:19:21Z,42.805,6.029,13.2958,4.59961,2470.04,2020-1-05T15:19:53Z
2020-01-05T13:22:24Z,42.805,6.029,13.2966,4.59962,2470.017,2020-1-05T15:22:56Z
2020-01-05T13:25:28Z,42.805,6.029,13.2964,4.59964,2469.993,2020-1-05T15:25:59Z
2020-01-05T13:28:31Z,42.805,6.029,13.2964,4.59963,2470.053,2020-1-05T15:29:03Z
2020-01-05T13:31:34Z,42.805,6.029,13.2964,4.59961,2470.017,2020-1-05T15:32:06Z
2020-01-05T13:34:37Z,42.805,6.029,13.2962,4.59961,2469.993,2020-1-05T15:35:09Z
2020-01-05T13:37:40Z,42.805,6.029,13.2959,4.59963,2470.04,2020-1-05T15:38:12Z
2020-01-05T13:40:44Z,42.805,6.029,13.2964,4.59961,2470.077,2020-1-05T15:41:15Z
2020-01-05T13:43:47Z,42.805,6.029,13.2964,4.59966,2470.04,2020-1-05T15:44:19Z
2020-01-05T13:46:50Z,42.805,6.029,13.2964,4.59961,2470.04,2020-1-05T15:47:22Z
2020-01-05T13:49:53Z,42.805,6.029,13.2961,4.59962,2470.03,2020-1-05T15:50:25Z
2020-01-05T13:52:57Z,42.805,6.029,13.2964,4.59963,2470.04,2020-1-05T15:53:28Z
2020-01-05T13:56:00Z,42.805,6.029,13.2964,4.59961,2470.017,2020-1-05T15:56:32Z
2020-01-05T13:59:03Z,42.805,6.029,13.2961,4.59961,2470.053,2020-1-05T15:59:35Z
2020-01-05T14:02:06Z,42.805,6.029,13.2964,4.59961,2470.04,2020-1-05T16:02:38Z
2020-01-05T14:05:09Z,42.805,6.029,13.2961,4.59961,2470.053,2020-1-05T16:05:41Z
2020-01-05T14:08:13Z,42.805,6.029,13.2962,4.59962,2470.053,2020-1-05T16:08:44Z
2020-01-05T14:11:16Z,42.805,6.029,13.2965,4.59962,2470.053,2020-1-05T16:11:48Z
2020-01-05T14:14:19Z,42.805,6.029,13.2961,4.59962,2470.077,2020-1-05T16:14:51Z
2020-01-05T14:17:22Z,42.805,6.029,13.2962,4.59962,2470.053,2020-1-05T16:17:54Z
2020-01-05T14:20:25Z,42.805,6.029,13.2967,4.59966,2470.063,2020-1-05T16:20:57Z
2020-01-05T14:23:29Z,42.805,6.029,13.2962,4.59963,2470.04,2020-1-05T16:24:00Z
2020-01-05T14:26:32Z,42.805,6.029,13.2964,4.59964,2470.063,2020-1-05T16:27:04Z
2020-01-05T14:29:35Z,42.805,6.029,13.2966,4.59966,2470.017,2020-1-05T16:30:07Z
2020-01-05T14:32:38Z,42.805,6.029,13.2964,4.59964,2470.053,2020-1-05T16:33:10Z
2020-01-05T14:35:42Z,42.805,6.029,13.2963,4.59962,2470.063,2020-1-05T16:36:13Z
2020-01-05T14:38:45Z,42.805,6.029,13.2962,4.59963,2470.063,2020-1-05T16:39:17Z
2020-01-05T14:41:48Z,42.805,6.029,13.2961,4.59966,2470.04,2020-1-05T16:42:20Z
2020-01-05T14:44:51Z,42.805,6.029,13.2961,4.59971,2470.063,2020-1-05T16:45:23Z
2020-01-05T14:47:55Z,42.805,6.029,13.2963,4.59963,2470.077,2020-1-05T16:48:26Z
2020-01-05T14:50:58Z,42.805,6.029,13.2964,4.59964,2470.063,2020-1-05T16:51:30Z
2020-01-05T14:54:01Z,42.805,6.029,13.2963,4.59963,2470.077,2020-1-05T16:54:33Z
2020-01-05T14:57:04Z,42.805,6.029,13.2964,4.59963,2470.053,2020-1-05T16:57:36Z
2020-01-05T15:00:07Z,42.805,6.029,13.2961,4.59964,2470.04,2020-1-05T17:00:39Z
2020-01-05T15:03:11Z,42.805,6.029,13.2963,4.59963,2470.04,2020-1-05T17:03:42Z
2020-01-05T15:06:14Z,42.805,6.029,13.2961,4.59963,2470.063,2020-1-05T17:06:46Z
2020-01-05T15:09:17Z,42.805,6.029,13.2963,4.59964,2470.053,2020-1-05T17:09:49Z
2020-01-05T15:12:20Z,42.805,6.029,13.2964,4.59966,2470.063,2020-1-05T17:12:52Z
2020-01-05T15:15:24Z,42.805,6.029,13.2963,4.59964,2470.077,2020-1-05T17:15:55Z